Regional Weather Roundup
Issued by NWS Midland/Odessa, TX

Current Version | Previous Version | Text Only | Print | Product List | Glossary On
Versions: 1 2 3 4 5 6 7 8 9 10 11 12 13 14 15 16 17 18 19 20 21 22 23 24 25 26 27 28 29 30 31 32 33 34 35 36 37 38 39 40 41 42 43 44 45 46 47 48 49 50
000
ASUS44 KMAF 231610
RWRMAF
MIDLAND AREA WEATHER ROUNDUP
NATIONAL WEATHER SERVICE MIDLAND TX
1100 AM CDT WED AUG 23 2017

...IN SOUTHWEST TEXAS AND SOUTHEAST NEW MEXICO...

CITY           SKY/WX    TMP DP  RH WIND       PRES   REMARKS
ALPINE         SUNNY     76  64  67 E8        30.29R
ANDREWS          N/A     77  65  67 E6        30.19F
ARTESIA        MOSUNNY   75  66  73 CALM      30.20S
BIG SPRING     CLOUDY    70  68  93 CALM      30.19S
CARLSBAD       MOSUNNY   75  67  76 NW9       30.17F
DRYDEN           N/A     79  70  74 N12       30.09R
FORT STOCKTON  CLOUDY    75  66  73 NE7       30.17S
GUAD PASS      SUNNY     72  63  73 E23       30.29S
HOBBS          PTSUNNY   73  64  73 NE8       30.21S
MARFA          SUNNY     79  61  53 VRB6      30.25S
MIDLAND AIRPK  PTSUNNY   73  67  79 E8        30.19S
MIDLAND INTL   CLOUDY    75  66  73 E10       30.17S
ODESSA         CLOUDY    74  66  76 E9        30.19R
PECOS          MOSUNNY   78  64  62 NE5       30.16S
PRESIDIO       FAIR      86  62  44 CALM      30.11F
SEMINOLE       CLOUDY    76  62  61 E7        30.21R
SNYDER         CLOUDY    75  67  75 E5        30.16S
WINK           MOSUNNY   79  65  62 VRB7      30.15S
$$
...OTHER STATIONS IN TEXAS...

CITY           SKY/WX    TMP DP  RH WIND       PRES   REMARKS
ABILENE        MOSUNNY   78  70  76 N9        30.11S
AMARILLO       CLOUDY    69  65  86 SE8       30.23S
AUSTIN         MOSUNNY   90  68  48 VRB3      30.00F
BROWNSVILLE    MOSUNNY   89  75  63 MISG      29.94F
CORPUS CHRISTI MOSUNNY   90  75  61 E6        29.97S HX 100
DALLAS FTW     CLOUDY    83  70  64 VRB3      30.03R
DEL RIO        SUNNY     88  69  53 SE7       30.00F
EL PASO        PTSUNNY   81  64  56 N7        30.18R
HOUSTON INT    MOSUNNY   90  74  59 N6        29.99S
LUBBOCK        CLOUDY    69  65  86 VRB3      30.20S
SAN ANGELO     CLOUDY    80  68  66 NE6       30.11S
SAN ANTONIO    MOSUNNY   86  69  56 NW3       30.02F
WACO           SUNNY     88  73  61 NE12      30.01F
WICHITA FALLS  NOT AVBL
$$
...OTHER LOCATIONS IN NEW MEXICO...

CITY           SKY/WX    TMP DP  RH WIND       PRES   REMARKS
ALAMOGORDO     PTSUNNY   75  64  69 S5        30.21F
ALBUQUERQUE    MOSUNNY   72  58  61 CALM      30.31S
CANNON AFB     MOSUNNY   74  73  97 E5        30.25S
CLOVIS         CLOUDY    73  67  81 NE9       30.25S
HOLLOMAN AFB   PTSUNNY   79  68  68 SE3       30.21F
ROSWELL        MOSUNNY   76  66  71 NE8       30.21R
RUIDOSO        CLOUDY    72  50  46 N8        30.38S
SANTA FE       SUNNY     70  55  59 N10       30.36S
TRUTH OR CONSE PTSUNNY   78  59  51 NE7       30.24F
TUCUMCARI      PTSUNNY   73  66  78 E7        30.22S
$$




USA.gov is the U.S. government's official web portal to all federal, state and local government web resources and services.